Weather History for KLKU - March, 2013

Change the Weather History Date:

Tuesday, March 19, 2013

  Actual Average (KCHO) Record (KCHO)
Temperature  
Mean Temperature 50 °F 47 °F  
Max Temperature 66 °F 58 °F 87 °F (1945)
Min Temperature 33 °F 36 °F 12 °F (1993)
Degree Days  
Heating Degree Days 16 18  
Month to date heating degree days 398  
Since 1 July heating degree days 3810  
Cooling Degree Days 0 0  
Month to date cooling degree days 0  
Year to date cooling degree days 0  
Moisture  
Dew Point 26 °F    
Average Humidity 60    
Maximum Humidity 100    
Minimum Humidity 18    
Precipitation  
Precipitation 0.17 in 0.13 in 2.48 in (1975)
Month to date precipitation 2.07  
Year to date precipitation 7.54  
Sea Level Pressure  
Sea Level Pressure 29.81 in    
Wind  
Wind Speed 5 mph (West)    
Max Wind Speed 24 mph    
Max Gust Speed 36 mph    
Visibility 6 miles    
Events Fog    
T = Trace of Precipitation, MM = Missing Value Source: NWS Daily Summary

Daily Weather History Graph

Daily Weather History Graph

Search for Another Location

Airport or City:

Trip Planner

Search our weather history database for the weather conditions in past years. The results will help you decide how hot, cold, wet, or windy it might be!

Date:

Astronomy

Mar. 19, 2013 Rise Set
Actual Time 7:16 AM EDT 7:23 PM EDT
Civil Twilight 6:50 AM EDT 7:49 PM EDT
Nautical Twilight 6:19 AM EDT 8:20 PM EDT
Astronomical Twilight 5:48 AM EDT 8:51 PM EDT
Moon 12:10 PM EDT (3/19) 2:03 AM EDT (3/19)
Length of Visible Light 12h 59m
Length of Day
12h 06m
Waxing Crescent, 49% of the Moon is Illuminated
Mar 19
Waxing Crescent
Mar 19
First Quarter
Mar 27
Full
Apr 3
Last Quarter
Apr 10
New

Hourly Weather History & Observations

Time (EDT) Temp. Windchill Dew Point Humidity Pressure Visibility Wind Dir Wind Speed Gust Speed Precip Events Conditions
12:15 AM 33.8 °F 28.6 °F 32.0 °F 93% 29.90 in 10.0 mi West 5.8 mph - N/A   Overcast
12:35 AM 33.8 °F - 32.0 °F 93% 29.88 in 7.0 mi Calm Calm - N/A   Overcast
12:55 AM 33.8 °F - 32.0 °F 93% 29.87 in 7.0 mi Calm Calm - N/A   Overcast
1:15 AM 33.8 °F - 32.0 °F 93% 29.87 in 7.0 mi Calm Calm - 0.01 in   Overcast
1:35 AM 33.8 °F - 32.0 °F 93% 29.85 in 7.0 mi Calm Calm - 0.01 in   Overcast
1:55 AM 33.8 °F - 30.2 °F 87% 29.84 in 2.0 mi Calm Calm - 0.01 in   Overcast
2:15 AM 33.8 °F - 32.0 °F 93% 29.83 in 1.5 mi Calm Calm - N/A   Overcast
2:35 AM 33.8 °F - 32.0 °F 93% 29.83 in 2.5 mi Calm Calm - N/A   Overcast
2:55 AM 33.8 °F 30.8 °F 32.0 °F 93% 29.81 in 1.5 mi SSW 3.5 mph - N/A   Overcast
3:15 AM 33.8 °F - 32.0 °F 93% 29.80 in 0.8 mi Calm Calm - N/A   Overcast
3:35 AM 33.8 °F - 32.0 °F 93% 29.80 in 0.8 mi Calm Calm - N/A   Overcast
3:55 AM 33.8 °F - 32.0 °F 93% 29.78 in 0.8 mi Calm Calm - N/A   Overcast
4:15 AM 33.8 °F - 30.2 °F 87% 29.77 in 0.5 mi Calm Calm - N/A Fog Fog
4:35 AM 33.8 °F 30.8 °F 30.2 °F 87% 29.77 in 0.8 mi West 3.5 mph - N/A   Overcast
4:55 AM 33.8 °F - 30.2 °F 87% 29.76 in 0.5 mi Calm Calm - N/A Fog Fog
5:15 AM 33.8 °F - 32.0 °F 93% 29.76 in 0.5 mi Calm Calm - N/A Fog Fog
5:35 AM 33.8 °F 30.8 °F 32.0 °F 93% 29.75 in 0.8 mi South 3.5 mph - N/A   Overcast
5:55 AM 33.8 °F 29.6 °F 32.0 °F 93% 29.76 in 0.5 mi WSW 4.6 mph - N/A Fog Fog
6:15 AM 33.8 °F 30.8 °F 32.0 °F 93% 29.75 in 0.8 mi South 3.5 mph - N/A   Overcast
6:35 AM 33.8 °F 30.8 °F 32.0 °F 93% 29.75 in 0.5 mi SW 3.5 mph - N/A Fog Fog
6:55 AM 33.8 °F 30.8 °F 32.0 °F 93% 29.77 in 0.5 mi SSW 3.5 mph - N/A Fog Fog
7:15 AM 33.8 °F 29.6 °F 32.0 °F 93% 29.77 in 0.8 mi SW 4.6 mph - N/A   Overcast
7:35 AM 33.8 °F 30.8 °F 32.0 °F 93% 29.77 in 1.2 mi SW 3.5 mph - N/A   Overcast
7:55 AM 33.8 °F 29.6 °F 32.0 °F 93% 29.79 in 0.2 mi WNW 4.6 mph - 0.01 in Fog Fog
8:15 AM 33.8 °F 30.8 °F 32.0 °F 93% 29.79 in 0.8 mi WNW 3.5 mph - N/A   Overcast
8:35 AM 33.8 °F 29.6 °F 32.0 °F 93% 29.79 in 0.8 mi NW 4.6 mph - N/A   Overcast
8:55 AM 33.8 °F 29.6 °F 32.0 °F 93% 29.81 in 0.5 mi NNW 4.6 mph - N/A Fog Fog
9:15 AM 33.8 °F 28.6 °F 32.0 °F 93% 29.82 in 0.2 mi North 5.8 mph - 0.01 in Fog Fog
9:35 AM 33.8 °F 30.8 °F 33.8 °F 100% 29.82 in 0.2 mi North 3.5 mph - 0.02 in Fog Fog
9:55 AM 35.6 °F - 33.8 °F 93% 29.83 in 0.5 mi Calm Calm - 0.03 in Fog Fog
10:15 AM 35.6 °F - 33.8 °F 93% 29.81 in 0.2 mi Calm Calm - 0.03 in Fog Fog
10:35 AM 35.6 °F - 35.6 °F 100% 29.82 in 0.5 mi Calm Calm - 0.05 in Fog Fog
10:55 AM 37.4 °F - 35.6 °F 93% 29.82 in 3.0 mi Calm Calm - 0.08 in   Overcast
11:15 AM 39.2 °F 35.9 °F 37.4 °F 93% 29.82 in 10.0 mi SSE 4.6 mph - 0.03 in   Overcast
11:35 AM 42.8 °F - 39.2 °F 87% 29.81 in 10.0 mi Calm Calm - 0.03 in   Overcast
11:55 AM 44.6 °F - 39.2 °F 81% 29.81 in 10.0 mi Calm Calm - 0.04 in   Mostly Cloudy
12:15 PM 46.4 °F 45.2 °F 41.0 °F 81% 29.80 in 10.0 mi SE 3.5 mph - N/A   Clear
12:35 PM 50.0 °F - 39.2 °F 66% 29.79 in 10.0 mi Calm Calm - N/A   Clear
12:55 PM 53.6 °F - 39.2 °F 58% 29.79 in 10.0 mi WSW 4.6 mph - N/A   Clear
1:15 PM 53.6 °F - 39.2 °F 58% 29.79 in 10.0 mi SW 6.9 mph - N/A   Clear
1:35 PM 57.2 °F - 30.2 °F 36% 29.77 in 10.0 mi West 15.0 mph 29.9 mph N/A   Clear
1:55 PM 59.0 °F - 32.0 °F 36% 29.77 in 10.0 mi West 8.1 mph - N/A   Clear
2:15 PM 60.8 °F - 30.2 °F 31% 29.76 in 10.0 mi WNW 16.1 mph 23.0 mph N/A   Clear
2:35 PM 60.8 °F - 28.4 °F 29% 29.75 in 10.0 mi WSW 9.2 mph - N/A   Clear
2:55 PM 60.8 °F - 35.6 °F 39% 29.74 in 10.0 mi WSW 4.6 mph - N/A   Clear
3:15 PM 62.6 °F - 33.8 °F 34% 29.71 in 10.0 mi WSW 10.4 mph - N/A   Clear
3:35 PM 62.6 °F - 35.6 °F 37% 29.71 in 10.0 mi SW 8.1 mph 16.1 mph N/A   Clear
3:55 PM 64.4 °F - 35.6 °F 34% 29.72 in 10.0 mi WSW 8.1 mph - N/A   Clear
4:15 PM 66.2 °F - 21.2 °F 18% 29.72 in 10.0 mi West 19.6 mph 34.5 mph N/A   Clear
4:35 PM 64.4 °F - 21.2 °F 19% 29.73 in 10.0 mi West 17.3 mph 35.7 mph N/A   Clear
4:55 PM 62.6 °F - 21.2 °F 20% 29.74 in 10.0 mi West 19.6 mph 26.5 mph N/A   Clear
5:15 PM 64.4 °F - 23.0 °F 21% 29.75 in 10.0 mi West 17.3 mph 25.3 mph N/A   Clear
5:35 PM 62.6 °F - 21.2 °F 20% 29.75 in 10.0 mi West 17.3 mph 35.7 mph N/A   Clear
5:55 PM 60.8 °F - 17.6 °F 19% 29.76 in 10.0 mi West 24.2 mph 33.4 mph N/A   Clear
6:15 PM 60.8 °F - 17.6 °F 19% 29.77 in 10.0 mi West 19.6 mph 32.2 mph N/A   Clear
6:35 PM 59.0 °F - 15.8 °F 19% 29.78 in 10.0 mi WNW 15.0 mph 32.2 mph N/A   Clear
6:55 PM 57.2 °F - 15.8 °F 20% 29.80 in 10.0 mi West 15.0 mph 28.8 mph N/A   Clear
7:15 PM 55.4 °F - 12.2 °F 18% 29.81 in 10.0 mi West 15.0 mph 25.3 mph N/A   Clear
7:35 PM 53.6 °F - 12.2 °F 19% 29.83 in 10.0 mi West 15.0 mph 23.0 mph N/A   Clear
7:55 PM 53.6 °F - 12.2 °F 19% 29.84 in 10.0 mi West 12.7 mph 18.4 mph N/A   Clear
8:15 PM 53.6 °F - 12.2 °F 19% 29.85 in 10.0 mi West 15.0 mph 21.9 mph N/A   Clear
8:35 PM 51.8 °F - 10.4 °F 19% 29.86 in 10.0 mi West 10.4 mph 19.6 mph N/A   Clear
8:55 PM 51.8 °F - 8.6 °F 18% 29.87 in 10.0 mi West 15.0 mph 21.9 mph N/A   Clear
9:15 PM 50.0 °F - 8.6 °F 19% 29.88 in 10.0 mi West 9.2 mph - N/A   Clear
9:35 PM 51.8 °F - 8.6 °F 18% 29.90 in 10.0 mi West 15.0 mph 25.3 mph N/A   Clear
9:55 PM 50.0 °F - 8.6 °F 19% 29.91 in 10.0 mi West 19.6 mph 27.6 mph N/A   Clear
10:15 PM 48.2 °F - 8.6 °F 20% 29.92 in 10.0 mi West 20.7 mph 25.3 mph N/A   Clear
10:35 PM 48.2 °F - 6.8 °F 19% 29.93 in 10.0 mi West 17.3 mph 27.6 mph N/A   Clear
10:55 PM 48.2 °F - 6.8 °F 19% 29.94 in 10.0 mi West 15.0 mph 25.3 mph N/A   Clear
11:15 PM 46.4 °F 39.8 °F 6.8 °F 20% 29.94 in 10.0 mi West 16.1 mph 21.9 mph N/A   Clear
11:35 PM 46.4 °F 42.4 °F 6.8 °F 20% 29.95 in 10.0 mi West 8.1 mph 19.6 mph N/A   Clear
11:55 PM 44.6 °F 40.7 °F 6.8 °F 21% 29.95 in 10.0 mi West 6.9 mph - N/A   Clear